Location: Arrington
(35.8681°N, 86.7092°W)
Time: 23:57:56
(UTC+00:00)

Cosmos 2016 Rocket - Pass Details

Date: 23 November 2019
Orbit: 947 x 1000 km, 83.0° (Epoch: 07 December)

Event Time Altitude Azimuth Distance (km) Brightness Sun altitude
Rises 10:14:09 0° 182° (S) 3,655 7.1 -27.4°
Reaches altitude 10° 10:16:38 10° 182° (S) 2,719 6.4 -26.9°
Maximum altitude 10:22:53 84° 95° (E) 998 4.0 -25.7°
Drops below altitude 10° 10:29:15 10° 8° (N) 2,766 6.4 -24.4°
Sets 10:31:47 0° 8° (N) 3,723 7.0 -23.9°
